Project,Study,Ord_Occ,Event_Num,Cast_ID,Date_Time_UTC,Date_Time_PST,Lat_Dec,Lon_Dec,Sta_ID,Line,Sta,Depth,Pressure,PrQ,Temp1,Temp1Q,Temp2,Temp2Q,TempAve,Salt1,Salt1Q,Salt1_Corr,Salt2,Salt2Q,Salt2_Corr,SaltAve_Corr,Ox1,Ox1Q,Ox1_CruiseCorr,Ox1_StaCorr,Ox2,Ox2Q,Ox2_CruiseCorr,Ox2_StaCorr,OxAve_StaCorr,Ox1uM,Ox1uM_CruiseCorr,Ox1uM_StaCorr,Ox2uM,Ox2uM_CruiseCorr,Ox2uM_StaCorr,OxAveuM_StaCorr,FluorV,FluorQ,EstChl_CruiseCorr,EstChl_StaCorr,ISUSV,ISUSQ,EstNO3_CruiseCorr,EstNO3_StaCorr,SigThetaTS1,SigThetaTS1Q,SigThetaTS2,SigThetaTS2Q,BAT,XMiss,TransQ,pH,pHQ,SPAR,SPARQ,PAR,PARQ,PoT1,PoT2,DynHt,SVA,OxSat1,OxSat2,BTL_Depth,BTL_Temp,SaltB,OxB,OxBuM,Chl-a,Phaeo,NO3,NO2,NH4,PO4,SIL
CalCOFI,2101RL,017,,2101_017d,19-Jan-2021 05:38:11,18-Jan-2021 21:38:11,29.84523,-123.58486,093.3 120.0,093.3,120.0,4.000,4.027,,16.8604,,16.8605,,16.8605,33.3424,,33.3482,33.3369,,33.3389,33.3436,5.3397,,5.5884,5.6032,5.2737,,5.5992,5.5853,5.5943,232.821,243.9772,244.5388,229.944,259.3530,243.7582,244.1485,0.0398,,0.0779,0.1544, ,, , ,24.2752,,24.2710,,0.7058,83.8240,,,,2.5317E+00,,4.0116E-01,,16.8597,16.8598,0.0031,363.937,96.307,95.113,4,,33.3340,5.589,243.84,0.211,-0.011,,,,,
CalCOFI,2101RL,017,,2101_017d,19-Jan-2021 05:38:18,18-Jan-2021 21:38:18,29.84522,-123.58484,093.3 120.0,093.3,120.0,5.000,5.034,,16.8601,,16.8604,,16.8603,33.3427,,33.3485,33.3371,,33.3391,33.3438,5.3382,,5.5869,5.6017,5.2993,,5.6264,5.6125,5.6071,232.755,243.9081,244.4697,231.060,259.2796,244.9439,244.7068,0.0394,,0.0746,0.1519, ,, , ,24.2756,,24.2712,,0.7042,83.8570,,,,2.0398E+00,,3.6796E-01,,16.8592,16.8596,0.0105,363.940,96.279,95.575,,,,,,,,,,,,
CalCOFI,2101RL,017,,2101_017d,19-Jan-2021 05:38:19,18-Jan-2021 21:38:19,29.84521,-123.58483,093.3 120.0,093.3,120.0,6.000,6.041,,16.8606,,16.8608,,16.8607,33.3427,,33.3485,33.3372,,33.3392,33.3439,5.3428,,5.5917,5.6065,5.2970,,5.6239,5.6101,5.6083,232.953,244.1154,244.6769,230.958,259.4998,244.8356,244.7563,0.0411,,0.0886,0.1626, ,, , ,24.2755,,24.2712,,0.7044,83.8536,,,,2.5437E+00,,3.6172E-01,,16.8596,16.8598,0.0136,363.983,96.362,95.534,,,,,,,,,,,,
CalCOFI,2101RL,017,,2101_017d,19-Jan-2021 05:38:21,18-Jan-2021 21:38:21,29.84520,-123.58482,093.3 120.0,093.3,120.0,7.000,7.048,,16.8603,,16.8608,,16.8606,33.3424,,33.3482,33.3370,,33.3390,33.3436,5.3381,,5.5868,5.6015,5.2885,,5.6149,5.6011,5.6013,232.749,243.9019,244.4634,230.587,259.2729,244.4414,244.4524,0.0426,,0.1009,0.1721, ,, , ,24.2754,,24.2711,,0.7044,83.8536,,,,2.1297E+00,,3.4751E-01,,16.8591,16.8596,0.0173,364.025,96.277,95.380,,,,,,,,,,,,
CalCOFI,2101RL,017,,2101_017d,19-Jan-2021 05:38:25,18-Jan-2021 21:38:25,29.84519,-123.58484,093.3 120.0,093.3,120.0,8.000,8.055,,16.8606,,16.8609,,16.8608,33.3427,,33.3485,33.3372,,33.3392,33.3439,5.3293,,5.5775,5.5923,5.2840,,5.6101,5.5963,5.5943,232.366,243.5009,244.0626,230.391,258.8470,244.2331,244.1479,0.0395,,0.0755,0.1525, ,, , ,24.2755,,24.2713,,0.7054,83.8326,,,,1.8067E+00,,3.3160E-01,,16.8594,16.8596,0.0210,364.044,96.119,95.299,,,,,,,,,,,,
CalCOFI,2101RL,017,,2101_017d,19-Jan-2021 05:38:27,18-Jan-2021 21:38:27,29.84516,-123.58484,093.3 120.0,093.3,120.0,9.000,9.062,,16.8608,,16.8612,,16.8610,33.3427,,33.3485,33.3371,,33.3391,33.3438,5.3347,,5.5832,5.5980,5.2875,,5.6139,5.6000,5.5990,232.599,243.7448,244.3064,230.544,259.1061,244.3957,244.3511,0.0391,,0.0722,0.1500, ,, , ,24.2755,,24.2712,,0.7054,83.8326,,,,1.8474E+00,,3.2198E-01,,16.8594,16.8598,0.0246,364.078,96.216,95.363,9,,33.3387,5.569,242.94,0.170,0.029,,,,,
CalCOFI,2101RL,017,,2101_017d,19-Jan-2021 05:38:28,18-Jan-2021 21:38:28,29.84516,-123.58484,093.3 120.0,093.3,120.0,10.000,10.069,,16.8610,,16.8613,,16.8612,33.3428,,33.3486,33.3372,,33.3392,33.3439,5.3371,,5.5857,5.6005,5.2884,,5.6148,5.6009,5.6007,232.707,243.8579,244.4195,230.585,259.2262,244.4393,244.4294,0.0392,,0.0730,0.1506, ,, , ,24.2756,,24.2712,,0.7050,83.8409,,,,1.8474E+00,,3.1295E-01,,16.8594,16.8597,0.0283,364.103,96.261,95.380,,,,,,,,,,,,
CalCOFI,2101RL,017,,2101_017d,19-Jan-2021 05:38:31,18-Jan-2021 21:38:31,29.84516,-123.58483,093.3 120.0,093.3,120.0,11.000,11.076,,16.8607,,16.8611,,16.8609,33.3425,,33.3483,33.3370,,33.3390,33.3437,5.3380,,5.5867,5.6014,5.2989,,5.6260,5.6121,5.6068,232.743,243.8956,244.4572,231.041,259.2663,244.9238,244.6905,0.0397,,0.0771,0.1538, ,, , ,24.2755,,24.2712,,0.7053,83.8337,,,,1.8474E+00,,2.9961E-01,,16.8589,16.8594,0.0320,364.145,96.275,95.568,,,,,,,,,,,,
CalCOFI,2101RL,017,,2101_017d,19-Jan-2021 05:38:35,18-Jan-2021 21:38:35,29.84514,-123.58483,093.3 120.0,093.3,120.0,12.000,12.082,,16.8608,,16.8613,,16.8611,33.3425,,33.3483,33.3370,,33.3390,33.3437,5.3473,,5.5964,5.6112,5.3085,,5.6362,5.6223,5.6168,233.149,244.3206,244.8821,231.461,259.7177,245.3700,245.1261,0.0391,,0.0722,0.1500, ,, , ,24.2755,,24.2711,,0.7052,83.8368,,,,1.8759E+00,,2.8113E-01,,16.8588,16.8594,0.0358,364.179,96.443,95.742,,,,,,,,,,,,
CalCOFI,2101RL,017,,2101_017d,19-Jan-2021 05:38:44,18-Jan-2021 21:38:44,29.84511,-123.58486,093.3 120.0,093.3,120.0,13.000,13.089,,16.8619,,16.8626,,16.8623,33.3428,,33.3486,33.3374,,33.3394,33.3440,5.3430,,5.5919,5.6067,5.2925,,5.6192,5.6053,5.6060,232.963,244.1259,244.6874,230.764,259.5109,244.6294,244.6584,0.0392,,0.0730,0.1506, ,, , ,24.2755,,24.2712,,0.7050,83.8398,,,,1.8531E+00,,2.3576E-01,,16.8598,16.8605,0.0425,364.212,96.368,95.457,,,,,,,,,,,,
CalCOFI,2101RL,017,,2101_017d,19-Jan-2021 05:38:53,18-Jan-2021 21:38:53,29.84508,-123.58490,093.3 120.0,093.3,120.0,14.000,14.096,,16.8634,,16.8637,,16.8636,33.3432,,33.3490,33.3378,,33.3398,33.3444,5.3380,,5.5867,5.6014,5.2822,,5.6082,5.5944,5.5979,232.745,243.8977,244.4592,230.313,259.2685,244.1503,244.3048,0.0394,,0.0746,0.1519, ,, , ,24.2755,,24.2713,,0.7044,83.8532,,,,1.8474E+00,,1.9327E-01,,16.8611,16.8614,0.0479,364.243,96.281,95.272,,,,,,,,,,,,
CalCOFI,2101RL,017,,2101_017d,19-Jan-2021 05:38:58,18-Jan-2021 21:38:58,29.84508,-123.58492,093.3 120.0,093.3,120.0,15.000,15.103,,16.8626,,16.8628,,16.8627,33.3432,,33.3490,33.3376,,33.3396,33.3443,5.3352,,5.5837,5.5985,5.2829,,5.6090,5.5951,5.5968,232.625,243.7721,244.3336,230.343,259.1350,244.1821,244.2579,0.0391,,0.0722,0.1500, ,, , ,24.2757,,24.2714,,0.7043,83.8557,,,,1.8474E+00,,1.6416E-01,,16.8602,16.8603,0.0516,364.259,96.230,95.283,,,,,,,,,,,,
CalCOFI,2101RL,017,,2101_017d,19-Jan-2021 05:39:02,18-Jan-2021 21:39:02,29.84507,-123.58491,093.3 120.0,093.3,120.0,16.000,16.110,,16.8621,,16.8624,,16.8623,33.3431,,33.3489,33.3377,,33.3397,33.3443,5.3407,,5.5895,5.6043,5.2891,,5.6156,5.6017,5.6030,232.863,244.0212,244.5827,230.616,259.3997,244.4722,244.5275,0.0389,,0.0706,0.1487, ,, , ,24.2758,,24.2716,,0.7053,83.8355,,,,1.8474E+00,,1.4857E-01,,16.8595,16.8598,0.0553,364.277,96.328,95.395,,,,,,,,,,,,
CalCOFI,2101RL,017,,2101_017d,19-Jan-2021 05:39:07,18-Jan-2021 21:39:07,29.84503,-123.58490,093.3 120.0,093.3,120.0,17.000,17.117,,16.8599,,16.8597,,16.8598,33.3432,,33.3490,33.3377,,33.3397,33.3444,5.3317,,5.5801,5.5949,5.2865,,5.6128,5.5989,5.5969,232.471,243.6108,244.1725,230.499,258.9638,244.3479,244.2602,0.0397,,0.0771,0.1538, ,, , ,24.2764,,24.2723,,0.7044,83.8537,,,,1.8474E+00,,1.2702E-01,,16.8572,16.8569,0.0598,364.257,96.162,95.342,,,,,,,,,,,,
CalCOFI,2101RL,017,,2101_017d,19-Jan-2021 05:39:11,18-Jan-2021 21:39:11,29.84501,-123.58493,093.3 120.0,093.3,120.0,18.000,18.124,,16.8586,,16.8588,,16.8587,33.3432,,33.3490,33.3377,,33.3397,33.3444,5.3283,,5.5765,5.5913,5.2798,,5.6057,5.5918,5.5916,232.321,243.4538,244.0155,230.209,258.7970,244.0397,244.0276,0.0384,,0.0665,0.1455, ,, , ,24.2768,,24.2725,,0.7071,83.7963,,,,1.8474E+00,,1.0541E-01,,16.8556,16.8559,0.0639,364.257,96.097,95.221,,,,,,,,,,,,
CalCOFI,2101RL,017,,2101_017d,19-Jan-2021 05:39:14,18-Jan-2021 21:39:14,29.84500,-123.58494,093.3 120.0,093.3,120.0,19.000,19.131,,16.8590,,16.8596,,16.8593,33.3430,,33.3488,33.3375,,33.3395,33.3442,5.3433,,5.5922,5.6070,5.2698,,5.5951,5.5812,5.5941,232.975,244.1384,244.7000,229.774,259.5243,243.5776,244.1388,0.0386,,0.0681,0.1468, ,, , ,24.2766,,24.2722,,0.7044,83.8536,,,,1.8474E+00,,9.1464E-02,,16.8560,16.8565,0.0675,364.305,96.369,95.042,,,,,,,,,,,,
CalCOFI,2101RL,017,,2101_017d,19-Jan-2021 05:39:18,18-Jan-2021 21:39:18,29.84500,-123.58494,093.3 120.0,093.3,120.0,20.000,20.138,,16.8602,,16.8606,,16.8604,33.3429,,33.3487,33.3376,,33.3396,33.3442,5.3327,,5.5811,5.5959,5.2877,,5.6141,5.6002,5.5981,232.513,243.6548,244.2164,230.554,259.0105,244.4063,244.3114,0.0395,,0.0755,0.1525, ,, , ,24.2763,,24.2721,,0.7068,83.8022,,,,2.0529E+00,,7.6073E-02,,16.8569,16.8574,0.0712,364.368,96.179,95.366,,,,,,,,,,,,
CalCOFI,2101RL,017,,2101_017d,19-Jan-2021 05:39:21,18-Jan-2021 21:39:21,29.84499,-123.58493,093.3 120.0,093.3,120.0,21.000,21.145,,16.8600,,16.8600,,16.8600,33.3431,,33.3489,33.3376,,33.3396,33.3443,5.3314,,5.5797,5.5945,5.2935,,5.6202,5.6064,5.6005,232.456,243.5951,244.1568,230.806,258.9471,244.6741,244.4155,0.0390,,0.0714,0.1493, ,, , ,24.2765,,24.2723,,0.7053,83.8344,,,,2.1046E+00,,6.6941E-02,,16.8566,16.8565,0.0749,364.383,96.155,95.469,,,,,,,,,,,,
CalCOFI,2101RL,017,,2101_017d,19-Jan-2021 05:39:24,18-Jan-2021 21:39:24,29.84498,-123.58492,093.3 120.0,093.3,120.0,22.000,22.152,,16.8599,,16.8604,,16.8602,33.3431,,33.3489,33.3376,,33.3396,33.3443,5.3317,,5.5801,5.5949,5.2905,,5.6170,5.6032,5.5991,232.470,243.6098,244.1714,230.676,258.9627,244.5359,244.3537,0.0393,,0.0738,0.1512, ,, , ,24.2766,,24.2722,,0.7050,83.8417,,,,2.1500E+00,,4.9425E-02,,16.8563,16.8569,0.0785,364.407,96.161,95.417,,,,,,,,,,,,
CalCOFI,2101RL,017,,2101_017d,19-Jan-2021 05:39:28,18-Jan-2021 21:39:28,29.84498,-123.58494,093.3 120.0,093.3,120.0,23.000,23.159,,16.8609,,16.8614,,16.8612,33.3431,,33.3489,33.3376,,33.3396,33.3443,5.3353,,5.5838,5.5986,5.2828,,5.6089,5.5950,5.5968,232.625,243.7721,244.3336,230.337,259.1350,244.1758,244.2547,0.0385,,0.0673,0.1462, ,, , ,24.2763,,24.2720,,0.7071,83.7969,,,,1.8327E+00,,3.5540E-02,,16.8572,16.8576,0.0822,364.463,96.227,95.278,,,,,,,,,,,,
CalCOFI,2101RL,017,,2101_017d,19-Jan-2021 05:39:30,18-Jan-2021 21:39:30,29.84498,-123.58494,093.3 120.0,093.3,120.0,24.000,24.166,,16.8607,,16.8610,,16.8609,33.3431,,33.3489,33.3377,,33.3397,33.3443,5.3391,,5.5878,5.6026,5.2800,,5.6059,5.5920,5.5973,232.792,243.9469,244.5084,230.219,259.3208,244.0504,244.2794,0.0399,,0.0787,0.1550, ,, , ,24.2764,,24.2722,,0.7044,83.8533,,,,2.4088E+00,,2.6618E-02,,16.8568,16.8571,0.0859,364.486,96.296,95.229,,,,,,,,,,,,
CalCOFI,2101RL,017,,2101_017d,19-Jan-2021 05:39:32,18-Jan-2021 21:39:32,29.84497,-123.58494,093.3 120.0,093.3,120.0,25.000,25.173,,16.8639,,16.8650,,16.8645,33.3432,,33.3490,33.3377,,33.3397,33.3444,5.3378,,5.5864,5.6012,5.2762,,5.6019,5.5880,5.5946,232.736,243.8882,244.4498,230.053,259.2585,243.8740,244.1619,0.0393,,0.0738,0.1512, ,, , ,24.2758,,24.2714,,0.7049,83.8438,,,,2.5330E+00,,1.4043E-02,,16.8598,16.8609,0.0896,364.579,96.279,95.167,25,,33.3427,5.603,244.43,0.214,0.005,,,,,
CalCOFI,2101RL,017,,2101_017d,19-Jan-2021 05:39:35,18-Jan-2021 21:39:35,29.84497,-123.58497,093.3 120.0,093.3,120.0,26.000,26.180,,16.8680,,16.8685,,16.8683,33.3428,,33.3486,33.3373,,33.3393,33.3440,5.3294,,5.5777,5.5924,5.2751,,5.6007,5.5868,5.5896,232.370,243.5051,244.0668,230.003,258.8515,243.8209,243.9439,0.0389,,0.0706,0.1487, ,, , ,24.2746,,24.2703,,0.7051,83.8376,,,,1.8325E+00,,7.8762E-03,,16.8638,16.8642,0.0932,364.732,96.135,95.152,,,,,,,,,,,,
CalCOFI,2101RL,017,,2101_017d,19-Jan-2021 05:39:37,18-Jan-2021 21:39:37,29.84498,-123.58500,093.3 120.0,093.3,120.0,27.000,27.186,,16.8685,,16.8686,,16.8686,33.3428,,33.3486,33.3374,,33.3394,33.3440,5.3370,,5.5856,5.6004,5.2690,,5.5942,5.5803,5.5904,232.702,243.8527,244.4142,229.739,259.2207,243.5404,243.9773,0.0388,,0.0697,0.1481, ,, , ,24.2745,,24.2703,,0.7048,83.8449,,,,2.0537E+00,,2.7877E-03,,16.8641,16.8642,0.0969,364.769,96.273,95.044,,,,,,,,,,,,
CalCOFI,2101RL,017,,2101_017d,19-Jan-2021 05:39:40,18-Jan-2021 21:39:40,29.84500,-123.58502,093.3 120.0,093.3,120.0,28.000,28.193,,16.8692,,16.8697,,16.8695,33.3431,,33.3489,33.3376,,33.3396,33.3443,5.3351,,5.5836,5.5984,5.2604,,5.5851,5.5712,5.5848,232.618,243.7647,244.3263,229.363,259.1273,243.1409,243.7336,0.0387,,0.0689,0.1474, ,, , ,24.2746,,24.2702,,0.7052,83.8370,,,,1.8211E+00,,-9.263E-05,,16.8647,16.8652,0.1006,364.795,96.239,94.890,,,,,,,,,,,,
CalCOFI,2101RL,017,,2101_017d,19-Jan-2021 05:39:41,18-Jan-2021 21:39:41,29.84498,-123.58499,093.3 120.0,093.3,120.0,29.000,29.200,,16.8696,,16.8700,,16.8698,33.3430,,33.3488,33.3376,,33.3396,33.3442,5.3371,,5.5857,5.6005,5.2809,,5.6068,5.5930,5.5968,232.707,243.8579,244.4195,230.256,259.2262,244.0897,244.2546,0.0389,,0.0706,0.1487, ,, , ,24.2745,,24.2703,,0.7047,83.8465,,,,1.8474E+00,,5.8214E-06,,16.8649,16.8652,0.1042,364.838,96.277,95.260,,,,,,,,,,,,
CalCOFI,2101RL,017,,2101_017d,19-Jan-2021 05:39:44,18-Jan-2021 21:39:44,29.84496,-123.58495,093.3 120.0,093.3,120.0,30.000,30.207,,16.8701,,16.8701,,16.8701,33.3432,,33.3490,33.3377,,33.3397,33.3444,5.3311,,5.5794,5.5942,5.2725,,5.5979,5.5841,5.5892,232.446,243.5847,244.1463,229.892,258.9360,243.7029,243.9246,0.0389,,0.0706,0.1487, ,, , ,24.2746,,24.2703,,0.7049,83.8436,,,,1.8474E+00,,1.0000E-12,,16.8652,16.8653,0.1079,364.865,96.170,95.110,,,,,,,,,,,,
CalCOFI,2101RL,017,,2101_017d,19-Jan-2021 05:39:48,18-Jan-2021 21:39:48,29.84497,-123.58495,093.3 120.0,093.3,120.0,31.000,31.214,,16.8699,,16.8701,,16.8700,33.3430,,33.3488,33.3376,,33.3396,33.3442,5.3311,,5.5794,5.5942,5.2744,,5.5999,5.5861,5.5902,232.445,243.5836,244.1452,229.971,258.9349,243.7869,243.9661,0.0392,,0.0730,0.1506, ,, , ,24.2745,,24.2703,,0.7051,83.8390,,,,1.8474E+00,,1.0000E-12,,16.8649,16.8650,0.1116,364.907,96.169,95.143,,,,,,,,,,,,
CalCOFI,2101RL,017,,2101_017d,19-Jan-2021 05:39:50,18-Jan-2021 21:39:50,29.84498,-123.58496,093.3 120.0,093.3,120.0,32.000,32.221,,16.8696,,16.8698,,16.8697,33.3429,,33.3487,33.3375,,33.3395,33.3441,5.3256,,5.5737,5.5885,5.2670,,5.5921,5.5782,5.5834,232.206,243.3334,243.8951,229.653,258.6691,243.4490,243.6721,0.0388,,0.0697,0.1481, ,, , ,24.2745,,24.2703,,0.7047,83.8468,,,,1.8474E+00,,1.0000E-12,,16.8644,16.8646,0.1153,364.938,96.070,95.010,,,,,,,,,,,,
CalCOFI,2101RL,017,,2101_017d,19-Jan-2021 05:39:51,18-Jan-2021 21:39:51,29.84498,-123.58496,093.3 120.0,093.3,120.0,33.000,33.228,,16.8695,,16.8694,,16.8695,33.3429,,33.3487,33.3375,,33.3395,33.3441,5.3411,,5.5899,5.6047,5.2652,,5.5902,5.5763,5.5905,232.880,244.0390,244.6005,229.571,259.4186,243.3619,243.9812,0.0388,,0.0697,0.1481, ,, , ,24.2746,,24.2704,,0.7055,83.8311,,,,1.8474E+00,,1.0000E-12,,16.8642,16.8641,0.1189,364.961,96.349,94.976,,,,,,,,,,,,
CalCOFI,2101RL,017,,2101_017d,19-Jan-2021 05:39:52,18-Jan-2021 21:39:52,29.84496,-123.58494,093.3 120.0,093.3,120.0,34.000,34.235,,16.8687,,16.8686,,16.8687,33.3427,,33.3485,33.3372,,33.3392,33.3439,5.3327,,5.5811,5.5959,5.2687,,5.5939,5.5800,5.5880,232.513,243.6548,244.2164,229.725,259.0105,243.5255,243.8710,0.0391,,0.0722,0.1500, ,, , ,24.2747,,24.2704,,0.7055,83.8293,,,,1.8474E+00,,1.0000E-12,,16.8631,16.8631,0.1226,364.984,96.195,95.038,,,,,,,,,,,,
CalCOFI,2101RL,017,,2101_017d,19-Jan-2021 05:39:53,18-Jan-2021 21:39:53,29.84496,-123.58494,093.3 120.0,093.3,120.0,35.000,35.242,,16.8680,,16.8684,,16.8682,33.3424,,33.3482,33.3370,,33.3390,33.3436,5.3344,,5.5829,5.5977,5.2732,,5.5987,5.5848,5.5913,232.586,243.7312,244.2928,229.920,259.0917,243.7327,244.0128,0.0388,,0.0697,0.1481, ,, , ,24.2746,,24.2704,,0.7055,83.8307,,,,1.8474E+00,,1.0000E-12,,16.8624,16.8627,0.1263,365.024,96.224,95.118,,,,,,,,,,,,
CalCOFI,2101RL,017,,2101_017d,19-Jan-2021 05:39:55,18-Jan-2021 21:39:55,29.84495,-123.58493,093.3 120.0,093.3,120.0,36.000,36.249,,16.8686,,16.8689,,16.8688,33.3424,,33.3482,33.3371,,33.3391,33.3437,5.3369,,5.5855,5.6003,5.2690,,5.5942,5.5803,5.5903,232.696,243.8464,244.4080,229.736,259.2140,243.5372,243.9726,0.0388,,0.0697,0.1481, ,, , ,24.2745,,24.2704,,0.7047,83.8481,,,,1.8474E+00,,1.0000E-12,,16.8627,16.8631,0.1300,365.068,96.270,95.043,,,,,,,,,,,,
CalCOFI,2101RL,017,,2101_017d,19-Jan-2021 05:39:57,18-Jan-2021 21:39:57,29.84494,-123.58492,093.3 120.0,093.3,120.0,37.000,37.256,,16.8690,,16.8691,,16.8691,33.3424,,33.3482,33.3370,,33.3390,33.3436,5.3395,,5.5882,5.6030,5.2694,,5.5946,5.5808,5.5919,232.810,243.9657,244.5273,229.757,259.3408,243.5595,244.0434,0.0395,,0.0755,0.1525, ,, , ,24.2744,,24.2702,,0.7051,83.8392,,,,1.8474E+00,,1.0000E-12,,16.8629,16.8631,0.1337,365.108,96.318,95.052,,,,,,,,,,,,
CalCOFI,2101RL,017,,2101_017d,19-Jan-2021 05:40:01,18-Jan-2021 21:40:01,29.84494,-123.58496,093.3 120.0,093.3,120.0,38.000,38.263,,16.8691,,16.8693,,16.8692,33.3424,,33.3482,33.3371,,33.3391,33.3437,5.3254,,5.5735,5.5883,5.2666,,5.5917,5.5778,5.5831,232.196,243.3230,243.8846,229.633,258.6580,243.4277,243.6562,0.0394,,0.0746,0.1519, ,, , ,24.2745,,24.2704,,0.7053,83.8347,,,,1.8474E+00,,1.0000E-12,,16.8629,16.8632,0.1381,365.134,96.064,95.001,,,,,,,,,,,,
CalCOFI,2101RL,017,,2101_017d,19-Jan-2021 05:40:03,18-Jan-2021 21:40:03,29.84494,-123.58496,093.3 120.0,093.3,120.0,39.000,39.270,,16.8694,,16.8697,,16.8696,33.3426,,33.3484,33.3372,,33.3392,33.3438,5.3212,,5.5691,5.5839,5.2743,,5.5998,5.5860,5.5850,232.014,243.1325,243.6942,229.969,258.4556,243.7847,243.7395,0.0402,,0.0812,0.1569, ,, , ,24.2746,,24.2704,,0.7055,83.8302,,,,1.8474E+00,,1.0000E-12,,16.8630,16.8634,0.1423,365.161,95.990,95.141,,,,,,,,,,,,
CalCOFI,2101RL,017,,2101_017d,19-Jan-2021 05:40:05,18-Jan-2021 21:40:05,29.84494,-123.58495,093.3 120.0,093.3,120.0,40.000,40.278,,16.8695,,16.8698,,16.8697,33.3425,,33.3483,33.3371,,33.3391,33.3437,5.3290,,5.5772,5.5920,5.2604,,5.5851,5.5712,5.5816,232.351,243.4852,244.0469,229.363,258.8304,243.1409,243.5939,0.0398,,0.0779,0.1544, ,, , ,24.2745,,24.2703,,0.7052,83.8364,,,,1.8474E+00,,1.0000E-12,,16.8630,16.8632,0.1459,365.202,96.129,94.890,,,,,,,,,,,,
CalCOFI,2101RL,017,,2101_017d,19-Jan-2021 05:40:07,18-Jan-2021 21:40:07,29.84494,-123.58494,093.3 120.0,093.3,120.0,41.000,41.285,,16.8702,,16.8707,,16.8705,33.3426,,33.3484,33.3371,,33.3391,33.3438,5.3250,,5.5730,5.5878,5.2667,,5.5918,5.5779,5.5829,232.178,243.3041,243.8658,229.638,258.6380,243.4331,243.6495,0.0392,,0.0730,0.1506, ,, , ,24.2745,,24.2702,,0.7051,83.8385,,,,1.8474E+00,,1.0000E-12,,16.8635,16.8640,0.1496,365.237,96.059,95.005,,,,,,,,,,,,
CalCOFI,2101RL,017,,2101_017d,19-Jan-2021 05:40:08,18-Jan-2021 21:40:08,29.84495,-123.58497,093.3 120.0,093.3,120.0,42.000,42.292,,16.8707,,16.8706,,16.8707,33.3428,,33.3486,33.3373,,33.3393,33.3440,5.3145,,5.5621,5.5769,5.2666,,5.5917,5.5778,5.5774,231.722,242.8268,243.3885,229.634,258.1309,243.4288,243.4087,0.0387,,0.0689,0.1474, ,, , ,24.2745,,24.2704,,0.7055,83.8298,,,,1.8474E+00,,1.0000E-12,,16.8639,16.8638,0.1533,365.265,95.872,95.004,,,,,,,,,,,,
CalCOFI,2101RL,017,,2101_017d,19-Jan-2021 05:40:09,18-Jan-2021 21:40:09,29.84496,-123.58498,093.3 120.0,093.3,120.0,43.000,43.299,,16.8705,,16.8706,,16.8706,33.3427,,33.3485,33.3373,,33.3393,33.3439,5.3273,,5.5755,5.5902,5.2636,,5.5885,5.5746,5.5824,232.277,243.4078,243.9694,229.504,258.7481,243.2907,243.6301,0.0393,,0.0738,0.1512, ,, , ,24.2746,,24.2704,,0.7052,83.8367,,,,1.8474E+00,,1.0000E-12,,16.8635,16.8636,0.1570,365.291,96.101,94.950,,,,,,,,,,,,
CalCOFI,2101RL,017,,2101_017d,19-Jan-2021 05:40:10,18-Jan-2021 21:40:10,29.84496,-123.58498,093.3 120.0,093.3,120.0,44.000,44.306,,16.8703,,16.8704,,16.8704,33.3426,,33.3484,33.3372,,33.3392,33.3438,5.3331,,5.5815,5.5963,5.2586,,5.5832,5.5693,5.5828,232.530,243.6726,244.2342,229.286,259.0294,243.0591,243.6467,0.0397,,0.0771,0.1538, ,, , ,24.2746,,24.2704,,0.7048,83.8456,,,,1.8474E+00,,1.0000E-12,,16.8631,16.8633,0.1607,365.324,96.205,94.859,,,,,,,,,,,,
CalCOFI,2101RL,017,,2101_017d,19-Jan-2021 05:40:12,18-Jan-2021 21:40:12,29.84494,-123.58501,093.3 120.0,093.3,120.0,45.000,45.313,,16.8704,,16.8705,,16.8705,33.3426,,33.3484,33.3372,,33.3392,33.3438,5.3265,,5.5746,5.5894,5.2592,,5.5838,5.5699,5.5797,232.246,243.3753,243.9370,229.310,258.7136,243.0845,243.5108,0.0391,,0.0722,0.1500, ,, , ,24.2746,,24.2704,,0.7053,83.8338,,,,1.8474E+00,,1.0000E-12,,16.8630,16.8632,0.1643,365.360,96.087,94.870,,,,,,,,,,,,
CalCOFI,2101RL,017,,2101_017d,19-Jan-2021 05:40:15,18-Jan-2021 21:40:15,29.84494,-123.58502,093.3 120.0,093.3,120.0,46.000,46.320,,16.8702,,16.8705,,16.8704,33.3425,,33.3483,33.3371,,33.3391,33.3437,5.3242,,5.5722,5.5870,5.2676,,5.5927,5.5789,5.5830,232.143,243.2675,243.8292,229.677,258.5991,243.4745,243.6519,0.0387,,0.0689,0.1474, ,, , ,24.2746,,24.2704,,0.7057,83.8265,,,,1.8474E+00,,1.0000E-12,,16.8627,16.8630,0.1680,365.388,96.045,95.021,,,,,,,,,,,,
CalCOFI,2101RL,017,,2101_017d,19-Jan-2021 05:40:18,18-Jan-2021 21:40:18,29.84492,-123.58502,093.3 120.0,093.3,120.0,47.000,47.327,,16.8705,,16.8708,,16.8707,33.3425,,33.3483,33.3371,,33.3391,33.3437,5.3321,,5.5805,5.5953,5.2564,,5.5808,5.5670,5.5812,232.489,243.6297,244.1913,229.190,258.9838,242.9571,243.5742,0.0412,,0.0894,0.1632, ,, , ,24.2746,,24.2703,,0.7055,83.8301,,,,1.8474E+00,,1.0000E-12,,16.8629,16.8631,0.1717,365.427,96.188,94.820,,,,,,,,,,,,
CalCOFI,2101RL,017,,2101_017d,19-Jan-2021 05:40:20,18-Jan-2021 21:40:20,29.84492,-123.58502,093.3 120.0,093.3,120.0,48.000,48.334,,16.8707,,16.8709,,16.8708,33.3425,,33.3483,33.3371,,33.3391,33.3437,5.3176,,5.5653,5.5801,5.2601,,5.5848,5.5709,5.5755,231.857,242.9681,243.5298,229.350,258.2810,243.1271,243.3285,0.0408,,0.0861,0.1607, ,, , ,24.2746,,24.2704,,0.7049,83.8437,,,,1.8474E+00,,1.0000E-12,,16.8629,16.8631,0.1754,365.459,95.927,94.887,,,,,,,,,,,,
CalCOFI,2101RL,017,,2101_017d,19-Jan-2021 05:40:22,18-Jan-2021 21:40:22,29.84494,-123.58502,093.3 120.0,093.3,120.0,49.000,49.341,,16.8708,,16.8711,,16.8710,33.3428,,33.3486,33.3375,,33.3395,33.3441,5.3208,,5.5686,5.5834,5.2666,,5.5917,5.5778,5.5806,231.996,243.1136,243.6753,229.635,258.4356,243.4299,243.5526,0.0409,,0.0869,0.1613, ,, , ,24.2748,,24.2707,,0.7051,83.8395,,,,1.8474E+00,,1.0000E-12,,16.8629,16.8631,0.1791,365.471,95.985,95.005,,,,,,,,,,,,
CalCOFI,2101RL,017,,2101_017d,19-Jan-2021 05:40:23,18-Jan-2021 21:40:23,29.84494,-123.58502,093.3 120.0,093.3,120.0,50.000,50.348,,16.8714,,16.8717,,16.8716,33.3428,,33.3486,33.3375,,33.3395,33.3441,5.3412,,5.5900,5.6048,5.2808,,5.6067,5.5929,5.5989,232.883,244.0421,244.6037,230.252,259.4219,244.0854,244.3446,0.0409,,0.0869,0.1613, ,, , ,24.2747,,24.2706,,0.7049,83.8419,,,,1.8474E+00,,1.0000E-12,,16.8633,16.8635,0.1827,365.511,96.353,95.262,,,,,,,,,,,,
CalCOFI,2101RL,017,,2101_017d,19-Jan-2021 05:40:24,18-Jan-2021 21:40:24,29.84494,-123.58502,093.3 120.0,093.3,120.0,51.000,51.355,,16.8714,,16.8715,,16.8715,33.3429,,33.3487,33.3375,,33.3395,33.3441,5.3379,,5.5865,5.6013,5.2810,,5.6070,5.5931,5.5972,232.740,243.8924,244.4540,230.263,259.2629,244.0971,244.2756,0.0397,,0.0771,0.1538, ,, , ,24.2748,,24.2707,,0.7052,83.8358,,,,1.8474E+00,,1.0000E-12,,16.8631,16.8632,0.1864,365.534,96.294,95.266,,,,,,,,,,,,
CalCOFI,2101RL,017,,2101_017d,19-Jan-2021 05:40:25,18-Jan-2021 21:40:25,29.84494,-123.58500,093.3 120.0,093.3,120.0,52.000,52.362,,16.8713,,16.8714,,16.8714,33.3430,,33.3488,33.3375,,33.3395,33.3442,5.3254,,5.5735,5.5883,5.2685,,5.5937,5.5798,5.5841,232.195,243.3219,243.8836,229.716,258.6569,243.5159,243.6998,0.0402,,0.0812,0.1569, ,, , ,24.2749,,24.2707,,0.7048,83.8450,,,,1.8474E+00,,1.0000E-12,,16.8628,16.8629,0.1901,365.558,96.068,95.039,,,,,,,,,,,,
CalCOFI,2101RL,017,,2101_017d,19-Jan-2021 05:40:28,18-Jan-2021 21:40:28,29.84494,-123.58498,093.3 120.0,093.3,120.0,53.000,53.369,,16.8712,,16.8714,,16.8713,33.3430,,33.3488,33.3375,,33.3395,33.3442,5.3353,,5.5838,5.5986,5.2500,,5.5740,5.5602,5.5794,232.628,243.7752,244.3368,228.908,259.1384,242.6574,243.4971,0.0400,,0.0796,0.1556, ,, , ,24.2750,,24.2707,,0.7049,83.8431,,,,2.0255E+00,,1.0000E-12,,16.8625,16.8628,0.1938,365.583,96.247,94.705,,,,,,,,,,,,